Regional Weather Roundup
Issued by NWS

Home | Current Version | Previous Version | Text Only | Print | Product List | Glossary On
Versions: 1 2 3 4 5 6 7 8 9 10 11 12 13 14 15 16 17 18 19 20 21 22 23 24 25 26 27 28 29 30 31 32 33 34 35 36 37 38 39 40 41 42 43 44 45 46 47 48 49 50
000
ASUS43 KTOP 200808
RWRKS

WEATHER ROUNDUP FOR KANSAS
NATIONAL WEATHER SERVICE GOODLAND KS
300 AM CDT SUN APR 20 2014

NOTE:  "FAIR" INDICATES FEW OR NO CLOUDS BELOW 12,000 FEET WITH NO
SIGNIFICANT WEATHER AND/OR OBSTRUCTIONS TO VISIBILITY.

KSZ001>006-013>018-027>032-041>047-200900-
NORTHWEST KANSAS

CITY           SKY/WX    TMP DP  RH WIND       PRES   REMARKS
GOODLAND       PTCLDY    45  44  97 NE3       30.01S
HAYS           PTCLDY    57  46  67 CALM      29.99S
HILL CITY      MOCLDY    57  50  77 CALM      29.98S
RUSSELL        PTCLDY    61  49  64 S14       29.98S
$$

KSZ061>065-074>080-084>089-200900-
SOUTHWEST KANSAS

CITY           SKY/WX    TMP DP  RH WIND       PRES   REMARKS
DODGE CITY     PTCLDY    59  47  64 S12       30.01F
ELKHART          N/A     52  44  74 S8          N/A
GARDEN CITY    PTCLDY    58  47  66 S9        29.99F
GREAT BEND     PTCLDY    61  48  63 S17       29.99F
LIBERAL        MOCLDY    57  48  72 S12       30.03F
PRATT          MOCLDY    61  48  63 S13       30.04F
$$

KSZ066>073-081>083-090>101-200900-
SOUTHEAST KANSAS

CITY           SKY/WX    TMP DP  RH WIND       PRES   REMARKS
CHANUTE        PTCLDY    55  47  74 S6        30.10S
COFFEYVILLE    CLOUDY    60  49  66 S8        30.10F
HUTCHINSON     CLOUDY    62  48  60 S10       30.05S
MEDICINE LODGE   N/A     61  50  67 S6        30.05S
NEWTON         CLOUDY    63  45  51 S14       30.10R
PARSONS        MOCLDY    62  47  57 S3        30.11S
WICHITA INTL   CLOUDY    60  49  66 S10       30.07S
WICHITA JABRA  CLOUDY    63  50  62 S14G22    30.07S
WICHITA MCCONL CLOUDY    62  53  72 S13       30.08S
WINFIELD       MOCLDY    62  50  64 S12       30.09S
$$

KSZ007>012-019>026-033>040-048>060-102>105-200900-
NORTHEAST KANSAS

CITY           SKY/WX    TMP DP  RH WIND       PRES   REMARKS
CONCORDIA      MOCLDY    63  49  60 S22       29.98F
EMPORIA        CLOUDY    59  46  62 S12       30.07S
LAWRENCE       PTCLDY    56  46  69 SE9       30.09S
MANHATTAN      MOCLDY    64  48  56 SW10      30.04S
OLATHE IND     CLEAR     56  45  66 S6        30.10F
OLATHE EXE     CLEAR     57  44  62 SE3       30.10S
SALINA         CLOUDY    64  48  56 S13       30.03R
TOPEKA BILLARD PTCLDY    64  46  52 S7        30.07S
TOPEKA FORBES  PTCLDY    62  45  53 S12       30.06F
$$



USA.gov is the U.S. government's official web portal to all federal, state and local government web resources and services.